User: anonymous   Login
Location: Wallasey
(53.4265°N, 3.0662°W)
Time: 19:46:20
(UTC+01:00)
Language:

CAS-4A - Orbit

View from above orbital plane
View from above orbital plane
View from above satellite
View from above satellite

Ground track
Ground track

The orbit data is extracted from the following two-line orbital elements,

1 42761U 17034D   19294.42392166  .00000096  00000-0  19397-4 0  9991
2 42761  43.0187 265.1412 0012982 316.6673 181.9166 15.09735553129681
Epoch (UTC): 21 October 2019 10:10:26
Eccentricity: 0.0012982
inclination: 43.0187°
perigee height: 528 km
apogee height: 546 km
right ascension of ascending node: 265.1412°
argument of perigee: 316.6673°
revolutions per day: 15.09735553
mean anomaly at epoch: 181.9166°
orbit number at epoch: 12968

The dashed part of the orbit path shows where the satellite is in the earth's shadow,  

DLR